Regional Weather Roundup
Issued by NWS

Home | Current Version | Previous Version | Text Only | Print | Product List | Glossary On
Versions: 1 2 3 4 5 6 7 8 9 10 11 12 13 14 15 16 17 18 19 20 21 22 23 24 25 26 27 28 29 30 31 32 33 34 35 36 37 38 39 40 41 42 43 44 45 46 47 48 49 50
000
ASUS43 KOAX 302002
RWRNE

WEATHER ROUNDUP FOR NEBRASKA
NATIONAL WEATHER SERVICE OMAHA NE
300 PM CDT SAT AUG 30 2014

NOTES: SATELLITE DATA IS BEING USED TO AUGMENT CLOUD COVER ABOVE
       12000 FEET.
       "FAIR" INDICATES FEW OR NO CLOUDS BELOW 12,000 FEET WITH NO
       SIGNIFICANT WEATHER AND/OR OBSTRUCTIONS TO VISIBILITY.

  * THESE STATIONS DO NOT REPORT WEATHER SUCH AS RAIN...SNOW OR FOG.

NEZ001>004-019>022-054>056-302100-
NEBRASKA PANHANDLE

CITY           SKY/WX    TMP DP  RH WIND       PRES   REMARKS
SCOTTSBLUFF    SUNNY     90  47  22 MISG      29.84F
ALLIANCE       SUNNY     86  53  32 S15G24    29.87F
CHADRON        SUNNY     90  51  26 S8G20     29.77F
KIMBALL        SUNNY     86  38  18 SW9       29.92F
SIDNEY         SUNNY     86  51  29 S14       29.93F
$$

NEZ057>060-069>072-079>082-302100-
SOUTHWEST NEBRASKA

CITY           SKY/WX    TMP DP  RH WIND       PRES   REMARKS
NORTH PLATTE   SUNNY     83  62  49 S12       29.89F
IMPERIAL       SUNNY     87  56  34 S16G22    29.90F
LEXINGTON      SUNNY     82  65  57 SE13      29.92F
MCCOOK         SUNNY     87  57  35 S9G21     29.91F
OGALLALA       SUNNY     82  58  44 S14       29.89F
$$

NEZ005>010-023>029-035>040-094-302100-
NORTH CENTRAL NEBRASKA

CITY           SKY/WX    TMP DP  RH WIND       PRES   REMARKS
VALENTINE      SUNNY     81  59  47 S18G28    29.86F
AINSWORTH      SUNNY     78  60  54 SE12G20   29.89F
BROKEN BOW     SUNNY     81  64  56 SE12G24   29.91F
O`NEILL        SUNNY     79  63  58 SE9       29.90F
ORD            SUNNY     79  62  56 SE12G17   29.90F
THEDFORD       SUNNY     83  60  46 S15G25    29.89F
$$

NEZ041-046>049-061>064-073>077-083>087-302100-
SOUTH CENTRAL NEBRASKA

CITY           SKY/WX    TMP DP  RH WIND       PRES   REMARKS
GRAND ISLAND   SUNNY     80  65  59 SE9       29.92F
AURORA         SUNNY     79  65  62 SE8       29.92F
HASTINGS       SUNNY     81  63  54 SE12      29.92F
HEBRON         SUNNY     84  61  45 SE3       29.92F
HOLDREGE       SUNNY     82  60  47 S10       29.92F
KEARNEY *      SUNNY     81  64  57 SE12      29.93F
$$

NEZ011>018-030>034-042>045-302100-
NORTHEAST NEBRASKA

CITY           SKY/WX    TMP DP  RH WIND       PRES   REMARKS
NORFOLK        SUNNY     78  59  51 CALM      29.91F
ALBION         SUNNY     77  63  61 SE8       29.92F
BLAIR          SUNNY     79  61  54 CALM      29.92F
FREMONT        SUNNY     81  60  48 CALM      29.92F
TEKAMAH        SUNNY     79  63  57 NW5       29.91F
WAYNE          SUNNY     75  62  64 CALM      29.92F
$$

NEZ050>053-065>068-078-088>093-302100-
SOUTHEAST NEBRASKA

CITY           SKY/WX    TMP DP  RH WIND       PRES   REMARKS
LINCOLN        SUNNY     83  63  50 SE5       29.92F
OMAHA EPPLEY   MOSUNNY   79  65  62 VRB3      29.92F
BEATRICE       SUNNY     83  63  50 CALM      29.92F
FALLS CITY     SUNNY     86  67  52 VRB3      29.90F
NEBRASKA CITY  SUNNY     82  60  46 CALM      29.92F
PLATTSMOUTH    SUNNY     80  64  59 N3        29.92F
$$

NEZ044-045-051>053-067-302100-
OMAHA AREA

CITY           SKY/WX    TMP DP  RH WIND       PRES   REMARKS
OMAHA EPPLEY   MOSUNNY   79  65  62 VRB3      29.92F
BLAIR          SUNNY     79  61  54 CALM      29.92F
FREMONT        SUNNY     81  60  48 CALM      29.92F
MILLARD        SUNNY     80  64  57 NW3       29.91F
OFFUTT AFB     SUNNY     79  67  68 NW3       29.91F
PLATTSMOUTH    SUNNY     80  64  59 N3        29.92F
WAHOO          FAIR      80  60  49 N3        29.92S
$$



USA.gov is the U.S. government's official web portal to all federal, state and local government web resources and services.